This is the latest recevied weather packets stored in our database for station/object KD8OZS. If no packets are shown the sender has not sent any weather packets the latest 1 day(s).
| Time | Temp. | Humidity | Pressure | Rain* | Wind** | Luminosity | Snow |
|---|---|---|---|---|---|---|---|
| 1778029436 | 13.89° C | 97% | 999.6 hPa | 6.1 mm | - | 0 W/m² | - |
| 1778029133 | 13.89° C | 97% | 999.8 hPa | 4.32 mm | - | 0 W/m² | - |
| 1778028830 | 13.89° C | 97% | 999.9 hPa | 1.27 mm | - | 0 W/m² | - |
| 1778028525 | 13.89° C | 97% | 999.8 hPa | 1.78 mm | - | 0 W/m² | - |
| 1778028224 | 13.89° C | 97% | 999.7 hPa | 3.05 mm | - | 0 W/m² | - |
| 1778027616 | 13.89° C | 97% | 999.9 hPa | 0 mm | - | 0 W/m² | - |
| 1778027312 | 13.89° C | 97% | 1000 hPa | 1.27 mm | - | 0 W/m² | - |
| 1778027009 | 13.89° C | 97% | 999.7 hPa | 3.05 mm | - | 0 W/m² | - |
| 1778026402 | 14.44° C | 97% | 999.8 hPa | 6.1 mm | - | 0 W/m² | - |
| 1778025493 | 14.44° C | 97% | 1000.1 hPa | 3.05 mm | - | 2 W/m² | - |
| 1778021860 | 14.44° C | 96% | 1000.1 hPa | 1.78 mm | - | 13 W/m² | - |
| 1778020344 | 15° C | 95% | 1000.5 hPa | 8.89 mm | - | 8 W/m² | - |
| 1778020040 | 15° C | 94% | 1000.6 hPa | 25.91 mm | - | 7 W/m² | - |
| 1778019736 | 15° C | 93% | 1000.4 hPa | 27.69 mm | - | 6 W/m² | - |
| 1778019130 | 15.56° C | 92% | 1000.4 hPa | 3.05 mm | - | 3 W/m² | - |
| 1778018525 | 15.56° C | 91% | 999.9 hPa | 1.78 mm | - | 14 W/m² | - |
| 1778017920 | 16.67° C | 88% | 999.7 hPa | 1.27 mm | - | 17 W/m² | - |
| 1778016709 | 17.22° C | 85% | 999.6 hPa | 0 mm | - | 66 W/m² | - |
| 1778014890 | 17.22° C | 83% | 999.8 hPa | 0 mm | - | 76 W/m² | - |
| 1778013982 | 17.78° C | 82% | 1000 hPa | 0 mm | - | 84 W/m² | - |
| 1778013376 | 18.33° C | 81% | 1000 hPa | 0 mm | - | 57 W/m² | - |
| 1778011254 | 18.33° C | 77% | 1000 hPa | 0 mm | - | 62 W/m² | - |
| 1778010950 | 18.33° C | 76% | 1000.3 hPa | 0 mm | - | 41 W/m² | - |
| 1778010648 | 18.33° C | 76% | 1000.2 hPa | 0 mm | - | 30 W/m² | - |
* Rain latest hour (hover to see other rain measurements)
** Current wind speed in m/s (hover to see current wind gust speed)